Location: Stonelick Lake State Park
(39.2170°N, 84.0850°W)
Time: 00:54:44
(UTC-04:00)

Amateur Radio Satellites - All Passes

Search period start: 24 July 2016 00:24
Search period end: 25 July 2016 00:24
Location: Stonelick Lake State Park, 39.2170°N, 84.0850°W

Satellite Date Start Highest point End Downlink Frequencies (MHz)
Time Altitude Azimuth
Cosmos 2504 24 Jul 00:27:21 00:35:05 46° 272° (W) 00:42:16 435.465 / 435.565
NANOSAT C BR1 24 Jul 00:29:50 00:33:24 25° 96° (E) 00:36:55 145.865
UKube-1 24 Jul 00:30:20 00:34:23 42° 72° (ENE) 00:38:27 .
PHONESAT 2.4 24 Jul 00:32:34 00:35:20 30° 206° (SSW) 00:38:05 2401.200-2431.200
AIST 2 24 Jul 00:35:53 00:37:42 13° 318° (NW) 00:39:31 435.215
DUCHIFAT 1 24 Jul 00:35:59 00:39:39 27° 96° (E) 00:43:17 145.980
ANTELSAT 24 Jul 00:43:41 00:47:52 33° 290° (WNW) 00:51:57 437.575/2403.000
VELOX 1 24 Jul 00:47:17 00:51:38 71° 258° (WSW) 00:56:02 145.980
TISAT 1 24 Jul 00:48:00 00:49:37 12° 63° (ENE) 00:51:12 437.305
QB50P1 24 Jul 00:49:31 00:53:38 44° 99° (E) 00:57:43 145.935-145.965
POPSAT HIP 1 24 Jul 00:55:32 00:59:44 51° 100° (E) 01:03:55 437.405
CUBEBUG 1 24 Jul 00:59:04 01:03:11 44° 261° (W) 01:07:19 437.445
BUGSAT 1 24 Jul 01:06:44 01:10:20 26° 96° (E) 01:13:56 437.445
AIST 1 24 Jul 01:06:57 01:10:20 22° 74° (ENE) 01:13:43
SPROUT 24 Jul 01:11:02 01:15:17 86° 261° (W) 01:19:35 437.525
QB50P2 24 Jul 01:15:24 01:19:43 85° 281° (W) 01:23:59 145.880/145.840
POLYITAN 1 24 Jul 01:18:02 01:22:22 83° 284° (WNW) 01:26:39 437.675
TIGRISAT 24 Jul 01:28:06 01:30:21 14° 297° (WNW) 01:32:35 435.000
AISAT 24 Jul 01:32:55 01:36:16 21° 265° (W) 01:39:38 437.250
Cosmos 2491 24 Jul 01:33:41 01:37:21 13° 301° (WNW) 01:41:03 435.465 / 435.565
AO-85 24 Jul 01:34:57 01:38:35 27° 248° (WSW) 01:41:59 145.980
ISS 24 Jul 01:45:55 01:47:28 13° 345° (NNW) 01:49:00 145.825
DX 1 24 Jul 01:46:15 01:49:32 21° 265° (W) 01:52:51 434.975-435.025
Oscar 19 24 Jul 01:48:49 01:51:18 13° 91° (E) 01:53:46 437.125/150
JAS-2 24 Jul 01:49:05 01:54:13 51° 101° (E) 01:59:42 435.910
NANOSAT C BR1 24 Jul 02:05:29 02:09:03 26° 291° (WNW) 02:12:35 145.865
UKube-1 24 Jul 02:08:01 02:10:36 16° 267° (W) 02:13:12 .
SWISSCUBE 24 Jul 02:08:48 02:12:27 22° 66° (ENE) 02:16:06 437.505
DUCHIFAT 1 24 Jul 02:11:46 02:15:12 24° 292° (WNW) 02:18:37 145.980
GONETS M04 24 Jul 02:18:52 02:25:01 20° 65° (ENE) 02:31:08
TISAT 1 24 Jul 02:20:37 02:24:43 58° 259° (W) 02:28:54 437.305
QB50P1 24 Jul 02:26:28 02:29:02 16° 295° (WNW) 02:31:35 145.935-145.965
BEESAT 24 Jul 02:29:56 02:34:10 32° 69° (ENE) 02:38:23 436.000
POPSAT HIP 1 24 Jul 02:32:52 02:35:04 14° 296° (WNW) 02:37:15 437.405
Gurwin Techsat 1B 24 Jul 02:37:40 02:41:17 18° 92° (E) 02:44:53 435.225
BUGSAT 1 24 Jul 02:42:08 02:45:35 24° 291° (WNW) 02:49:03 437.445
AIST 1 24 Jul 02:44:12 02:47:55 28° 270° (W) 02:51:37
ITUPSAT 1 24 Jul 02:50:01 02:54:39 50° 72° (ENE) 02:59:18 437.325
ITAMSAT 1 24 Jul 03:15:12 03:17:19 12° 90° (E) 03:19:26 435.822/435.867
Oscar 19 24 Jul 03:25:55 03:31:03 68° 286° (WNW) 03:36:11 437.125/150
JAS-2 24 Jul 03:35:25 03:38:59 19° 296° (WNW) 03:42:42 435.910
Cosmos 2499 24 Jul 03:37:39 03:45:07 42° 74° (ENE) 03:52:02 435.465 / 435.565
KKS-1 24 Jul 03:37:54 03:40:54 18° 65° (ENE) 03:43:54 437.445
MOZHAYETS 4 24 Jul 03:44:37 03:48:11 22° 67° (ENE) 03:51:46
SWISSCUBE 24 Jul 03:45:32 03:49:59 38° 262° (W) 03:54:28 437.505
BEESAT 24 Jul 04:07:59 04:11:55 25° 264° (W) 04:15:54 436.000
AO-7 24 Jul 04:10:00 04:16:28 24° 94° (E) 04:22:51 29.400- 29.500
CUSAT 1 24 Jul 04:10:42 04:13:50 18° 95° (E) 04:16:31 437.405
BEESAT 3 24 Jul 04:11:15 04:13:46 16° 46° (NE) 04:16:18 437.485
GONETS M04 24 Jul 04:14:04 04:22:54 83° 265° (W) 04:31:44
Gurwin Techsat 1B 24 Jul 04:16:21 04:21:31 52° 288° (WNW) 04:26:39 435.225
PCSat 24 Jul 04:22:24 04:22:43 10° 38° (NE) 04:23:03 145.827
STARS 24 Jul 04:25:51 04:29:36 28° 69° (ENE) 04:33:24 437.465
ITUPSAT 1 24 Jul 04:29:46 04:32:44 16° 267° (W) 04:35:44 437.325
ITAMSAT 1 24 Jul 04:52:06 04:57:18 73° 286° (WNW) 05:02:26 435.822/435.867
CUBESAT XI-V 24 Jul 04:55:07 04:57:41 15° 64° (ENE) 05:00:16 437.345
ISS 24 Jul 04:59:50 05:02:28 22° 25° (NNE) 05:05:06 145.825
JUGNU 24 Jul 05:02:53 05:03:20 10° 175° (S) 05:03:48 437.505
KKS-1 24 Jul 05:12:57 05:17:07 41° 261° (W) 05:21:21 437.445
MOZHAYETS 4 24 Jul 05:20:54 05:25:07 35° 263° (W) 05:29:23
Cosmos 2499 24 Jul 05:31:05 05:38:00 35° 275° (W) 05:44:30 435.465 / 435.565
DANDE 24 Jul 05:37:37 05:43:57 70° 98° (E) 05:48:41 436.750
BEESAT 2 24 Jul 05:46:29 05:50:30 81° 59° (ENE) 05:54:29 435.950
BEESAT 3 24 Jul 05:47:53 05:51:44 49° 243° (WSW) 05:55:32 437.485
CUSAT 1 24 Jul 05:51:45 05:55:45 28° 281° (W) 05:58:58 437.405
AO-7 24 Jul 06:01:31 06:09:49 70° 292° (WNW) 06:18:04 29.400- 29.500
PCSat 24 Jul 06:01:59 06:07:20 56° 58° (ENE) 06:12:38 145.827
STARS 24 Jul 06:02:22 06:05:55 24° 264° (W) 06:09:31 437.465
GONETS M04 24 Jul 06:13:54 06:18:16 15° 284° (WNW) 06:22:38
HORYU 2 24 Jul 06:28:54 06:33:22 65° 101° (ESE) 06:37:47 437.375
CUBESAT XI-V 24 Jul 06:30:04 06:34:36 54° 260° (W) 06:39:08 437.345
STRAND 1 24 Jul 06:35:22 06:37:25 12° 60° (ENE) 06:39:27 437.568
ISS 24 Jul 06:35:54 06:39:04 48° 223° (SW) 06:42:12 145.825
NOAA 15 24 Jul 06:37:39 06:41:04 17° 93° (E) 06:44:29 137.62
LilacSat-2 24 Jul 06:50:32 06:52:17 13° 92° (E) 06:54:00 437.200
GOMX 1 24 Jul 06:52:24 06:55:12 15° 92° (E) 06:58:07 467.674
O/OREOS (USA 219) 24 Jul 06:54:57 06:57:30 15° 55° (NE) 07:00:03 437.305
BRITE-PL 24 Jul 07:08:21 07:12:54 45° 99° (E) 07:17:48 437.365/2234.400
RS-15 24 Jul 07:08:22 07:18:11 35° 104° (ESE) 07:28:23 29.354- 29.394
AIST 2 24 Jul 07:17:02 07:20:54 35° 53° (NE) 07:24:44 435.215
Cubesat XI-IV 24 Jul 07:19:34 07:24:23 33° 97° (E) 07:29:08 437.490
DANDE 24 Jul 07:24:00 07:26:41 13° 286° (WNW) 07:29:04 436.750
CUTE-I 24 Jul 07:44:04 07:49:22 57° 101° (E) 07:54:34 437.470
PCSat 24 Jul 07:46:32 07:50:15 19° 255° (WSW) 07:53:56 145.827
NOAA 18 24 Jul 07:50:10 07:55:41 63° 102° (ESE) 08:01:09 137.9125
AO-7 24 Jul 07:56:41 08:01:06 16° 312° (NW) 08:05:31 29.400- 29.500
HORYU 2 24 Jul 08:07:33 08:09:21 12° 298° (WNW) 08:11:08 437.375
STRAND 1 24 Jul 08:10:42 08:15:51 83° 255° (WSW) 08:21:03 437.568
NOAA 15 24 Jul 08:16:02 08:21:09 55° 288° (WNW) 08:26:16 137.62
LilacSat-2 24 Jul 08:23:06 08:26:46 41° 287° (WNW) 08:30:24 437.200
CANX-2 24 Jul 08:23:20 08:24:51 12° 91° (E) 08:26:21 2200.000
GOMX 1 24 Jul 08:28:39 08:33:33 62° 285° (WNW) 08:38:45 467.674
O/OREOS (USA 219) 24 Jul 08:32:50 08:37:17 58° 252° (WSW) 08:41:44 437.305
SO-50 24 Jul 08:34:40 08:37:09 14° 108° (ESE) 08:39:39 436.795
CUTE 1.7 + AOD 2 24 Jul 08:36:41 08:39:05 15° 92° (E) 08:41:28 437.475
DOVE 4 24 Jul 08:39:18 08:44:25 82° 103° (ESE) 08:49:42 437.250
BRITE-PL 24 Jul 08:47:47 08:51:07 19° 292° (WNW) 08:54:38 437.365/2234.400
AIST 2 24 Jul 08:56:03 08:59:08 20° 249° (WSW) 09:02:13 435.215
Cubesat XI-IV 24 Jul 08:59:43 09:04:20 30° 293° (WNW) 09:08:56 437.490
SRMSAT 24 Jul 09:00:38 09:01:25 10° 185° (S) 09:02:12 437.500
CUBEBUG 2 24 Jul 09:12:06 09:14:47 15° 91° (E) 09:17:25 437.445
CINEMA 3 24 Jul 09:16:33 09:21:32 59° 100° (E) 09:26:27 145.822/145.860
HO-68 24 Jul 09:17:59 09:24:58 50° 101° (E) 09:31:54 435.675
RS-15 24 Jul 09:18:22 09:29:46 67° 307° (NW) 09:41:51 29.354- 29.394
YUBILEINY 24 Jul 09:18:24 09:22:57 15° 76° (ENE) 09:27:30 435.215
SEEDS 24 Jul 09:21:09 09:24:57 33° 97° (E) 09:28:43 437.485
PRISM 24 Jul 09:22:02 09:26:07 76° 76° (ENE) 09:30:11 437.425
CUTE-I 24 Jul 09:25:20 09:28:54 19° 297° (WNW) 09:32:29 437.470
NOAA 18 24 Jul 09:32:10 09:35:48 18° 299° (WNW) 09:39:24 137.9125
COMPASS 1 24 Jul 09:39:23 09:43:15 37° 98° (E) 09:47:05 437.405
Cosmos 2491 24 Jul 09:41:45 09:50:20 56° 78° (ENE) 09:58:53 435.465 / 435.565
Oscar 11 24 Jul 09:53:59 09:56:51 17° 93° (E) 09:59:42 145.826/435.025
CANX-2 24 Jul 09:56:53 10:01:01 53° 286° (WNW) 10:05:05 2200.000
ANTELSAT 24 Jul 10:05:31 10:08:43 19° 66° (ENE) 10:11:59 437.575/2403.000
AAUSAT CUBESAT 2 24 Jul 10:11:00 10:15:07 72° 101° (ESE) 10:19:12 437.432
CUTE 1.7 + AOD 2 24 Jul 10:11:07 10:15:07 42° 287° (WNW) 10:19:04 437.475
SO-50 24 Jul 10:12:14 10:17:05 67° 303° (WNW) 10:21:56 436.795
DOVE 4 24 Jul 10:19:20 10:21:28 13° 297° (WNW) 10:23:37 437.250
M-CUBED/EXP-1 PRIME 24 Jul 10:28:36 10:31:07 14° 96° (E) 10:33:39 437.505
UWE-3 24 Jul 10:32:08 10:36:47 74° 101° (E) 10:41:18 435.000/436.395/437.385
ZACube-1 24 Jul 10:40:33 10:45:02 58° 100° (E) 10:49:24 437.345
FUNcube-1 24 Jul 10:41:34 10:46:01 56° 100° (E) 10:50:21 145.935
TIGRISAT 24 Jul 10:46:47 10:51:10 47° 72° (ENE) 10:55:39 435.000
CUBEBUG 2 24 Jul 10:47:05 10:51:42 52° 287° (WNW) 10:56:12 437.445
HUMSAT D 24 Jul 10:50:30 10:52:51 15° 92° (E) 10:55:10 437.325/437.525
CINEMA 3 24 Jul 10:55:02 10:58:08 17° 296° (WNW) 11:01:13 145.822/145.860
AUBIESAT-1 24 Jul 10:56:43 11:00:26 23° 99° (E) 11:04:06 437.475
SEEDS 24 Jul 10:57:29 11:00:24 19° 293° (WNW) 11:03:19 437.485
UNISAT 6 24 Jul 11:01:48 11:06:22 74° 75° (ENE) 11:11:03 437.425
DELFI C3 24 Jul 11:02:26 11:06:12 43° 99° (E) 11:09:56 145.870
HO-68 24 Jul 11:06:14 11:12:21 31° 298° (WNW) 11:18:27 435.675
YUBILEINY 24 Jul 11:09:31 11:18:18 85° 94° (E) 11:27:10 435.215
Cosmos 2504 24 Jul 11:10:22 11:17:44 31° 83° (E) 11:25:07 435.465 / 435.565
COMPASS 1 24 Jul 11:15:52 11:18:29 17° 293° (WNW) 11:21:08 437.405
NANOSAT C BR1 24 Jul 11:21:40 11:24:25 17° 66° (ENE) 11:27:09 145.865
DUCHIFAT 1 24 Jul 11:27:27 11:30:20 18° 67° (ENE) 11:33:16 145.980
Oscar 11 24 Jul 11:29:07 11:33:07 38° 288° (WNW) 11:37:05 145.826/435.025
RS-15 24 Jul 11:35:58 11:45:14 25° 336° (NNW) 11:54:50 29.354- 29.394
Cosmos 2491 24 Jul 11:39:24 11:46:37 30° 277° (W) 11:53:52 435.465 / 435.565
ANTELSAT 24 Jul 11:40:43 11:45:04 42° 262° (W) 11:49:32 437.575/2403.000
QB50P1 24 Jul 11:41:02 11:44:40 29° 70° (ENE) 11:48:22 145.935-145.965
POPSAT HIP 1 24 Jul 11:46:59 11:50:46 33° 71° (ENE) 11:54:36 437.405
BUGSAT 1 24 Jul 11:56:21 11:58:54 16° 66° (ENE) 12:01:29 437.445
SO-50 24 Jul 11:56:50 11:58:28 11° 322° (NW) 12:00:06 436.795
M-CUBED/EXP-1 PRIME 24 Jul 12:01:18 12:05:54 60° 291° (WNW) 12:10:32 437.505
JAS-2 24 Jul 12:01:44 12:06:05 21° 65° (ENE) 12:10:10 435.910
QB50P2 24 Jul 12:06:35 12:10:45 61° 75° (ENE) 12:14:59 145.880/145.840
ESTCUBE 1 24 Jul 12:08:25 12:11:36 19° 94° (E) 12:14:46 437.505/2401.250
POLYITAN 1 24 Jul 12:09:13 12:13:24 62° 75° (ENE) 12:17:39 437.675
UWE-3 24 Jul 12:11:04 12:12:33 11° 298° (WNW) 12:14:02 435.000/436.395/437.385
ZACube-1 24 Jul 12:18:34 12:20:46 14° 296° (WNW) 12:22:58 437.345
FUNcube-1 24 Jul 12:19:25 12:21:44 14° 296° (WNW) 12:24:01 145.935
HUMSAT D 24 Jul 12:24:41 12:28:41 42° 287° (WNW) 12:32:36 437.325/437.525
TIGRISAT 24 Jul 12:25:16 12:28:06 16° 268° (W) 12:30:59 435.000
AUBIESAT-1 24 Jul 12:30:39 12:34:53 36° 294° (WNW) 12:39:06 437.475
DELFI C3 24 Jul 12:38:42 12:40:40 13° 294° (WNW) 12:42:37 145.870
VELOX 1 24 Jul 12:38:56 12:42:28 23° 95° (E) 12:46:00 145.980
UNISAT 6 24 Jul 12:43:22 12:43:35 10° 271° (W) 12:43:49 437.425
CUBEBUG 1 24 Jul 12:48:32 12:52:32 34° 97° (E) 12:56:32 437.445
NANOSAT C BR1 24 Jul 12:55:52 12:59:49 39° 262° (W) 13:03:49 145.865
SPROUT 24 Jul 12:59:01 13:01:57 18° 93° (E) 13:04:52 437.525
DUCHIFAT 1 24 Jul 13:01:53 13:05:45 36° 262° (W) 13:09:41 145.980
Cosmos 2504 24 Jul 13:01:56 13:10:34 58° 282° (WNW) 13:19:19 435.465 / 435.565
Oscar 19 24 Jul 13:04:23 13:07:53 19° 64° (ENE) 13:11:24 437.125/150
YUBILEINY 24 Jul 13:10:16 13:16:14 20° 296° (WNW) 13:22:16 435.215
QB50P1 24 Jul 13:17:08 13:20:26 22° 265° (W) 13:23:46 145.935-145.965
50 SAT 24 Jul 13:18:40 13:22:16 75° 102° (ESE) 13:25:51 437.505
AISAT 24 Jul 13:22:41 13:27:09 76° 102° (ESE) 13:31:36 437.250
POPSAT HIP 1 24 Jul 13:23:33 13:26:37 19° 266° (W) 13:29:42 437.405
BUGSAT 1 24 Jul 13:30:10 13:33:57 38° 262° (W) 13:37:48 437.445
DX 1 24 Jul 13:34:04 13:38:26 69° 102° (ESE) 13:42:47 434.975-435.025
AIST 1 24 Jul 13:36:44 13:38:43 13° 85° (E) 13:40:43
ESTCUBE 1 24 Jul 13:44:22 13:48:30 37° 289° (WNW) 13:52:38 437.505/2401.250
JAS-2 24 Jul 13:44:40 13:50:52 55° 259° (W) 13:56:25 435.910
QB50P2 24 Jul 13:46:11 13:46:57 10° 270° (W) 13:47:43 145.880/145.840
POLYITAN 1 24 Jul 13:49:05 13:49:36 10° 270° (W) 13:50:07 437.675
UKube-1 24 Jul 13:53:59 13:58:20 89° 281° (WNW) 14:02:40 .
RS-15 24 Jul 13:55:21 14:03:55 21° 12° (NNE) 14:12:34 29.354- 29.394
Gurwin Techsat 1B 24 Jul 13:57:28 14:01:53 27° 66° (ENE) 14:06:18 435.225
TISAT 1 24 Jul 14:06:03 14:09:25 22° 95° (E) 14:12:47 437.305
AO-85 24 Jul 14:08:37 14:11:29 15° 107° (ESE) 14:14:20 145.980
VELOX 1 24 Jul 14:15:02 14:18:56 30° 290° (WNW) 14:22:49 145.980
CUBEBUG 1 24 Jul 14:25:20 14:28:35 21° 293° (WNW) 14:31:51 437.445
ITAMSAT 1 24 Jul 14:31:30 14:35:07 19° 63° (ENE) 14:38:44 435.822/435.867
SPROUT 24 Jul 14:34:01 14:38:00 37° 289° (WNW) 14:41:59 437.525
Oscar 19 24 Jul 14:41:49 14:46:47 51° 260° (W) 14:51:47 437.125/150
ITUPSAT 1 24 Jul 14:53:15 14:55:38 14° 91° (E) 14:58:01 437.325
AISAT 24 Jul 15:02:12 15:02:59 10° 298° (WNW) 15:03:46 437.250
Cosmos 2504 24 Jul 15:04:25 15:06:03 11° 303° (WNW) 15:07:41 435.465 / 435.565
AO-7 24 Jul 15:07:49 15:14:58 33° 59° (ENE) 15:22:07 29.400- 29.500
AIST 1 24 Jul 15:11:49 15:15:52 44° 281° (W) 15:19:58
DX 1 24 Jul 15:12:48 15:14:01 11° 298° (WNW) 15:15:15 434.975-435.025
GONETS M04 24 Jul 15:19:46 15:26:05 23° 81° (E) 15:32:25
Gurwin Techsat 1B 24 Jul 15:36:46 15:41:39 36° 263° (W) 15:46:33 435.225
TISAT 1 24 Jul 15:41:23 15:45:02 29° 290° (WNW) 15:48:42 437.305
AO-85 24 Jul 15:46:02 15:51:27 75° 302° (WNW) 15:56:38 145.980
SWISSCUBE 24 Jul 15:46:20 15:51:02 58° 101° (E) 15:55:42 437.505
BEESAT 24 Jul 16:08:02 16:12:50 87° 105° (ESE) 16:17:35 436.000
ITAMSAT 1 24 Jul 16:09:04 16:14:09 53° 260° (W) 16:19:16 435.822/435.867
RS-15 24 Jul 16:09:10 16:20:53 46° 44° (NE) 16:32:28 29.354- 29.394
Cosmos 2499 24 Jul 16:11:26 16:19:21 38° 86° (E) 16:27:11 435.465 / 435.565
DANDE 24 Jul 16:18:23 16:20:30 21° 77° (ENE) 16:22:41 436.750
CUSAT 1 24 Jul 16:24:23 16:27:10 47° 262° (W) 16:30:32 437.405
ITUPSAT 1 24 Jul 16:29:09 16:33:50 58° 287° (WNW) 16:38:29 437.325
AO-7 24 Jul 16:59:05 17:07:16 58° 257° (WSW) 17:15:32 29.400- 29.500
KKS-1 24 Jul 17:04:42 17:08:55 39° 99° (E) 17:13:06 437.445
SO-50 24 Jul 17:06:22 17:08:16 12° 38° (NE) 17:10:08 436.795
GONETS M04 24 Jul 17:13:22 17:22:00 70° 280° (W) 17:30:44
MOZHAYETS 4 24 Jul 17:16:29 17:21:00 58° 101° (E) 17:25:29
HORYU 2 24 Jul 17:25:34 17:29:55 52° 73° (ENE) 17:34:17 437.375
SWISSCUBE 24 Jul 17:25:38 17:28:19 15° 297° (WNW) 17:31:00 437.505
CUTE-I 24 Jul 17:29:34 17:30:55 11° 58° (ENE) 17:32:15 437.470
AO-85 24 Jul 17:30:06 17:32:43 14° 320° (NW) 17:35:17 145.980
NOAA 18 24 Jul 17:38:02 17:40:59 15° 60° (ENE) 17:43:57 137.9125
BEESAT 24 Jul 17:49:24 17:49:51 10° 300° (WNW) 17:50:19 436.000
STARS 24 Jul 17:51:40 17:56:06 64° 101° (E) 18:00:30 437.465
NOAA 15 24 Jul 17:56:27 18:00:43 26° 66° (ENE) 18:05:01 137.62
GOMX 1 24 Jul 18:01:52 18:02:56 11° 62° (ENE) 18:04:00 467.674
Cosmos 2499 24 Jul 18:03:48 18:12:16 47° 284° (WNW) 18:20:39 435.465 / 435.565
BRITE-PL 24 Jul 18:19:04 18:22:59 40° 73° (ENE) 18:26:52 437.365/2234.400
RS-15 24 Jul 18:21:52 18:33:54 61° 248° (WSW) 18:45:42 29.354- 29.394
CUBESAT XI-V 24 Jul 18:27:38 18:31:57 39° 98° (E) 18:36:15 437.345
PHONESAT 2.4 24 Jul 18:38:06 18:40:35 22° 151° (SSE) 18:43:04 2401.200-2431.200
Cubesat XI-IV 24 Jul 18:40:19 18:45:28 49° 71° (ENE) 18:50:39 437.490
KKS-1 24 Jul 18:42:00 18:45:10 19° 294° (WNW) 18:48:20 437.445
SO-50 24 Jul 18:44:53 18:49:32 80° 58° (ENE) 18:54:01 436.795
MOZHAYETS 4 24 Jul 18:55:19 18:57:39 14° 296° (WNW) 18:59:58
LilacSat-2 24 Jul 19:03:21 19:07:12 79° 77° (ENE) 19:11:07 437.200
HORYU 2 24 Jul 19:04:28 19:06:45 14° 268° (W) 19:09:03 437.375
CUTE-I 24 Jul 19:04:42 19:10:05 83° 74° (ENE) 19:15:30 437.470
NOAA 18 24 Jul 19:15:25 19:20:56 78° 257° (WSW) 19:26:31 137.9125
GONETS M04 24 Jul 19:17:05 19:20:36 13° 301° (WNW) 19:24:09
STARS 24 Jul 19:30:07 19:31:54 12° 297° (WNW) 19:33:40 437.465
CUTE 1.7 + AOD 2 24 Jul 19:30:35 19:31:03 10° 63° (ENE) 19:31:31 437.475
NOAA 15 24 Jul 19:35:27 19:40:17 37° 262° (W) 19:45:09 137.62
GOMX 1 24 Jul 19:36:22 19:40:27 61° 259° (W) 19:44:39 467.674
BEESAT 3 24 Jul 19:37:24 19:40:54 33° 115° (ESE) 19:44:27 437.485
BEESAT 2 24 Jul 19:38:30 19:41:10 18° 111° (ESE) 19:43:50 435.950
DOVE 4 24 Jul 19:44:06 19:48:15 68° 76° (ENE) 19:52:40 437.250
HO-68 24 Jul 19:45:44 19:52:01 34° 63° (ENE) 19:58:19 435.675
BRITE-PL 24 Jul 19:59:26 20:01:41 14° 268° (W) 20:03:57 437.365/2234.400
CUBESAT XI-V 24 Jul 20:05:43 20:09:02 20° 293° (WNW) 20:12:22 437.345
CUBEBUG 2 24 Jul 20:10:24 20:11:58 12° 62° (ENE) 20:13:32 437.445
SEEDS 24 Jul 20:12:11 20:15:25 21° 68° (ENE) 20:18:38 437.485
PHONESAT 2.4 24 Jul 20:13:46 20:16:51 85° 172° (S) 20:19:57 2401.200-2431.200
CINEMA 3 24 Jul 20:17:05 20:21:17 43° 72° (ENE) 20:25:42 145.822/145.860
Cubesat XI-IV 24 Jul 20:21:53 20:25:46 20° 267° (W) 20:29:41 437.490
STRAND 1 24 Jul 20:22:35 20:27:18 36° 98° (E) 20:31:58 437.568
COMPASS 1 24 Jul 20:29:24 20:32:42 23° 69° (ENE) 20:36:00 437.405
RS-15 24 Jul 20:41:07 20:43:38 11° 267° (W) 20:46:09 29.354- 29.394
PCSat 24 Jul 20:42:16 20:47:36 65° 115° (ESE) 20:52:59 145.827
CANX-2 24 Jul 20:47:57 20:52:15 89° 256° (WSW) 20:56:33 2200.000
Oscar 11 24 Jul 20:48:51 20:50:47 13° 64° (ENE) 20:52:42 145.826/435.025
CUTE-I 24 Jul 20:49:13 20:50:44 11° 271° (W) 20:52:15 437.470
Cosmos 2491 24 Jul 20:53:45 20:54:43 10° 73° (ENE) 20:55:41 435.465 / 435.565
AAUSAT CUBESAT 2 24 Jul 20:59:58 21:03:51 39° 73° (ENE) 21:07:45 437.432
CUTE 1.7 + AOD 2 24 Jul 21:02:00 21:06:16 71° 258° (WSW) 21:10:33 437.475
O/OREOS (USA 219) 24 Jul 21:06:19 21:09:18 18° 100° (E) 21:12:18 437.305
PRISM 24 Jul 21:07:08 21:08:07 11° 91° (E) 21:09:06 437.425
BEESAT 2 24 Jul 21:15:01 21:18:42 37° 307° (NW) 21:22:26 435.950
M-CUBED/EXP-1 PRIME 24 Jul 21:15:09 21:16:41 12° 57° (ENE) 21:18:15 437.505
BEESAT 3 24 Jul 21:15:36 21:18:38 21° 311° (NW) 21:21:43 437.485
YUBILEINY 24 Jul 21:21:26 21:29:39 40° 74° (ENE) 21:37:46 435.215
UWE-3 24 Jul 21:27:31 21:31:54 51° 73° (ENE) 21:36:24 435.000/436.395/437.385
HO-68 24 Jul 21:32:42 21:39:30 46° 260° (W) 21:46:22 435.675
ZACube-1 24 Jul 21:34:54 21:39:05 40° 72° (ENE) 21:43:22 437.345
FUNcube-1 24 Jul 21:35:39 21:39:47 38° 71° (ENE) 21:44:01 145.935
AUBIESAT-1 24 Jul 21:42:19 21:45:07 20° 61° (ENE) 21:48:04 437.475
HUMSAT D 24 Jul 21:43:07 21:43:20 10° 63° (ENE) 21:43:34 437.325/437.525
CUBEBUG 2 24 Jul 21:43:23 21:47:53 73° 258° (WSW) 21:52:34 437.445
SEEDS 24 Jul 21:47:11 21:50:56 30° 264° (W) 21:54:40 437.485
DELFI C3 24 Jul 21:47:41 21:50:48 22° 69° (ENE) 21:53:54 145.870
PHONESAT 2.4 24 Jul 21:50:23 21:53:27 67° 3° (N) 21:56:31 2401.200-2431.200
CINEMA 3 24 Jul 21:55:51 21:58:40 16° 269° (W) 22:01:35 145.822/145.860
STRAND 1 24 Jul 22:02:07 22:06:17 26° 294° (WNW) 22:10:24 437.568
COMPASS 1 24 Jul 22:04:32 22:08:07 27° 264° (W) 22:11:43 437.405
Oscar 11 24 Jul 22:22:06 22:26:24 58° 260° (W) 22:30:42 145.826/435.025
PCSat 24 Jul 22:27:32 22:31:28 20° 313° (NW) 22:35:25 145.827
AAUSAT CUBESAT 2 24 Jul 22:37:01 22:39:30 15° 268° (W) 22:41:59 437.432
PRISM 24 Jul 22:39:44 22:43:44 55° 287° (WNW) 22:47:44 437.425
Cosmos 2491 24 Jul 22:41:09 22:49:44 67° 92° (E) 22:58:21 435.465 / 435.565
TIGRISAT 24 Jul 22:42:08 22:43:18 11° 89° (E) 22:44:27 435.000
O/OREOS (USA 219) 24 Jul 22:44:10 22:48:22 39° 297° (WNW) 22:52:34 437.305
M-CUBED/EXP-1 PRIME 24 Jul 22:47:08 22:50:40 51° 256° (WSW) 22:54:32 437.505
AIST 2 24 Jul 22:51:16 22:55:22 76° 302° (WNW) 22:59:30 435.215
UNISAT 6 24 Jul 22:55:52 22:58:56 17° 92° (E) 23:01:57 437.425
Cosmos 2504 24 Jul 22:56:43 23:04:44 52° 77° (ENE) 23:12:08 435.465 / 435.565
UWE-3 24 Jul 23:06:09 23:08:39 15° 269° (W) 23:11:13 435.000/436.395/437.385
ESTCUBE 1 24 Jul 23:07:31 23:10:18 16° 65° (ENE) 23:13:05 437.505/2401.250
ZACube-1 24 Jul 23:12:22 23:15:31 18° 268° (W) 23:18:42 437.345
FUNcube-1 24 Jul 23:12:55 23:16:08 19° 267° (W) 23:19:25 145.935
HUMSAT D 24 Jul 23:14:02 23:18:19 74° 259° (W) 23:22:39 437.325/437.525
ISS 24 Jul 23:14:11 23:17:26 89° 141° (SE) 23:20:42 145.825
AUBIESAT-1 24 Jul 23:16:11 23:19:23 28° 260° (W) 23:22:50 437.475
YUBILEINY 24 Jul 23:18:16 23:26:24 43° 273° (W) 23:34:29 435.215
DELFI C3 24 Jul 23:22:11 23:25:31 25° 264° (W) 23:28:52 145.870
PHONESAT 2.4 24 Jul 23:26:57 23:29:58 53° 200° (SSW) 23:32:58 2401.200-2431.200
ANTELSAT 24 Jul 23:33:24 23:37:51 43° 98° (E) 23:42:11 437.575/2403.000
VELOX 1 24 Jul 23:35:46 23:38:47 19° 66° (ENE) 23:41:51 145.980
CUBEBUG 1 24 Jul 23:43:46 23:47:16 25° 69° (ENE) 23:50:48 437.445
SPROUT 24 Jul 23:52:51 23:54:39 13° 64° (ENE) 23:56:29 437.525
QB50P2 24 Jul 23:55:12 23:56:15 11° 90° (E) 23:57:18 145.880/145.840
50 SAT 24 Jul 23:55:21 23:58:29 27° 71° (ENE) 00:01:37 437.505
POLYITAN 1 24 Jul 23:57:41 23:58:54 11° 90° (E) 00:00:08 437.675
